Flag for Germany Weather past 2 weeks in Gelsenkirchen, North Rhine-Westphalia, Germany

Now
78 °F

Passing clouds.


Feels Like: 79 °F
Forecast: 65 / 89 °F
Wind: 1 mph from Southeast

Location: Duesseldorf

Current Time: Aug 29, 2015 at 5:24:59 PM

Latest Report: Aug 29, 2015 at 5:00 PM


Visibility: 31 mi

Pressure: 30.13 "Hg

Humidity: 52%

Dew point: 59 °F

Location of GelsenkirchenLocation

Historic Weather in Gelsenkirchen — Graph

°F

Gelsenkirchen temperature yesterday

Maximum temperature yesterday: 69 °F (at 6:00 PM)
Minimum temperature yesterday: 56 °F (at 1:00 AM)
Average temperature yesterday: 62 °F

Past Weeks' High & Low Weather Summary

 TemperatureHumidityPressure
High80 °F (Aug 14, 4:00 PM)98% (Aug 19, 5:00 AM)30.26 "Hg (Aug 19, 5:00 AM)
Low49 °F (Aug 19, 5:00 AM)33% (Aug 23, 2:00 PM)29.53 "Hg (Aug 24, 6:00 PM)
Average65 °F73%29.96 "Hg
* Reported Aug 14 4:00 PM — Aug 29 4:00 PM, Gelsenkirchen, Weather by CustomWeather, © 2015

Note: Actual official high and low records may vary slightly from our data, if they occured in-between our weather recording intervals... More about our weather records

Advertising

Gelsenkirchen weather history for previous 24 hours

 ConditionsComfort  
Time TempWeatherWind HumidityBarometerVisibility
4:00 PM
Sat, Aug 29
78 °FScattered clouds.2 mph55%30.14 "Hg31 mi
3:00 PM75 °FScattered clouds.2 mph53%30.16 "Hg31 mi
2:00 PM74 °FScattered clouds.1 mph55%30.17 "Hg31 mi
1:00 PM72 °FScattered clouds.2 mph55%30.19 "Hg31 mi
12:00 PM70 °FPassing clouds.3 mph60%30.20 "Hg25 mi
10:00 AM64 °FPassing clouds.3 mph73%30.21 "Hg25 mi
9:00 AM62 °FPassing clouds.1 mph78%30.21 "Hg25 mi
8:00 AM58 °FFog.1 mph84%30.22 "Hg19 mi
7:00 AM52 °FPassing clouds.1 mph93%30.21 "Hg19 mi
6:00 AM53 °FFog.1 mph97%30.20 "Hg19 mi
5:00 AM51 °FClear.1 mph97%30.20 "Hg19 mi
4:00 AM53 °FFog.2 mph97%30.19 "Hg19 mi
3:00 AM53 °FClear.1 mph97%30.19 "Hg19 mi
2:00 AM53 °FPassing clouds.2 mph97%30.19 "Hg25 mi
1:00 AM54 °FPassing clouds.1 mph97%30.19 "Hg25 mi
12:00 AM56 °FPassing clouds.2 mph93%30.18 "Hg25 mi
11:00 PM
Fri, Aug 28
56 °FPassing clouds.1 mph95%30.17 "Hg25 mi
10:00 PM58 °FPassing clouds.2 mph89%30.16 "Hg22 mi
9:00 PM61 °FPassing clouds.1 mph80%30.14 "Hg16 mi
8:00 PM67 °FPassing clouds.2 mph61%30.12 "Hg19 mi
7:00 PM68 °FScattered clouds.3 mph60%30.11 "Hg25 mi
6:00 PM69 °FPassing clouds.3 mph54%30.11 "Hg25 mi
Weather by CustomWeather, © 2015

See weather overviewHow to use our weather pages